Location: Hlohovi?ky
(49.8934°N, 13.6739°E)
Time: 17:15:01
(UTC+00:00)

BlueWalker 3 - Pass Details

Date: 19 May 2025
Orbit: 460 x 472 km, 53.2° (Epoch: 17 June)

Event Time Altitude Azimuth Distance (km) Brightness Sun altitude
Rises 21:05:06 0° 291° (WNW) 2,496 6.3 -15.5°
Reaches altitude 10° 21:07:23 10° 282° (WNW) 1,620 5.1 -15.7°
Maximum altitude 21:10:41 33° 217° (SW) 808 2.7 -15.9°
Enters shadow 21:11:27 29° 191° (S) 871 2.7 -16.0°
